Location: Unspecified
(49.2170°N, 0.0000°E)
Time: 16:22:21
(UTC+00:00)

Vanguard 1 - Pass Details

Date: 19 June 2021
Orbit: 651 x 3832 km, 34.2° (Epoch: 23 July)

Event Time Altitude Azimuth Distance (km) Brightness Sun altitude
Rises 02:14:49 0° 272° (W) 7,184 14.2 -11.5°
Reaches altitude 10° 02:21:05 10° 263° (W) 5,658 13.6 -11.0°
Maximum altitude 02:33:01 28° 213° (SSW) 3,197 12.1 -9.9°
Drops below altitude 10° 02:40:37 10° 159° (SSE) 3,509 12.6 -9.2°
Sets 02:43:28 0° 146° (SSE) 4,135 13.1 -8.9°
